Location: Bronnegerveen
(52.9548°N, 6.8388°E)
Time: 02:51:28
(UTC+00:00)

Cosmos 371 Rocket - Pass Details

Date: 15 June 2025
Orbit: 675 x 691 km, 74.0° (Epoch: 07 July)

Event Time Altitude Azimuth Distance (km) Brightness Sun altitude
Exits shadow 00:19:30 19° 182° (S) 1,602 4.5 -13.1°
Maximum altitude 00:22:46 56° 110° (ESE) 822 3.6 -13.0°
Drops below altitude 10° 00:27:31 10° 32° (NNE) 2,155 7.1 -12.8°
Sets 00:29:52 0° 29° (NNE) 3,077 8.3 -12.7°
